{"data":{"norad_id":48423,"intl_designator":"2021-039A","name":"YAOGAN-30 09A","alt_names":[],"object_type":"PAYLOAD","status":"ACTIVE","operator":null,"country":"PRC","launch_date":"2021-05-06","launch_site_code":"XICLF","launch_vehicle":null,"mission":null,"orbit_class":"UNKNOWN","rcs_meters":null,"size_class":null,"mass_kg":null,"dimensions":null,"purposes":[],"wikipedia_slug":null,"has_3d_model":false,"image_url":null,"decayed_at":null,"tle_current":{"epoch":"2026-09-21T22:54:15.784704Z","epoch_age_seconds":58634,"freshness":"FRESH","line1":"1 48423U 21039A   26264.95434936  .00001564  00000+0  11584-3 0  9996","line2":"2 48423  34.9965 161.6805 0003831 180.2975 179.7731 15.03060089294117","mean_motion":15.03060089,"eccentricity":0.0003831,"inclination_deg":34.9965,"raan_deg":161.6805,"arg_perigee_deg":180.2975,"mean_anomaly_deg":179.7731,"bstar":0.00011584,"rev_number":29411,"period_min":95.804553027421,"perigee_km":554.80982453854,"apogee_km":560.12388421177,"semimajor_km":6935.6038543752,"source":"CELESTRAK","updated_at":"2026-09-22T09:00:23.329625Z"}}}